• In Hungary
  • List of Countries
  • For 7 days
  • Water Temperature
  • Satellite Maps
  • Weather Map
  • News
  • Weather Widgets
  • user-avatar
    Login

    Hourly Weather Kundryuchenskiy

    Today, 19 August, Sunday

    Time Temperature Precipitation Wind Pressure Humidity
    00:00 +22°C° 0 mm 6 mps 750 mmHg 33%
    01:00 +22°C° 0 mm 6 mps 750 mmHg 34%
    02:00 +21°C° 0 mm 5 mps 751 mmHg 36%
    03:00 +20°C° 0 mm 4 mps 751 mmHg 39%
    04:00 +19°C° 0 mm 4 mps 751 mmHg 41%
    05:00 +19°C° 0 mm 5 mps 751 mmHg 42%
    06:00 +19°C° 0 mm 5 mps 751 mmHg 44%
    07:00 +20°C° 0 mm 6 mps 752 mmHg 41%
    08:00 +22°C° 0 mm 6 mps 752 mmHg 37%
    09:00 +24°C° 0 mm 7 mps 752 mmHg 34%
    10:00 +26°C° 0 mm 6 mps 752 mmHg 31%
    11:00 +27°C° 0 mm 6 mps 752 mmHg 29%
    12:00 +28°C° 0 mm 6 mps 752 mmHg 26%
    13:00 +28°C° 0 mm 6 mps 752 mmHg 25%
    14:00 +29°C° 0 mm 6 mps 752 mmHg 23%
    15:00 +29°C° 0 mm 6 mps 752 mmHg 22%
    16:00 +28°C° 0 mm 6 mps 752 mmHg 22%
    17:00 +28°C° 0 mm 5 mps 752 mmHg 23%
    18:00 +27°C° 0 mm 5 mps 752 mmHg 23%
    19:00 +26°C° 0 mm 5 mps 752 mmHg 26%
    20:00 +23°C° 0 mm 4 mps 752 mmHg 29%
    21:00 +21°C° 0 mm 4 mps 752 mmHg 31%
    22:00 +20°C° 0 mm 4 mps 752 mmHg 33%
    23:00 +20°C° 0 mm 4 mps 752 mmHg 34%

    Tomorrow, 20 August, Monday

    Time Temperature Precipitation Wind Pressure Humidity
    00:00 +19°C° 0 mm 4 mps 752 mmHg 36%
    01:00 +19°C° 0 mm 4 mps 752 mmHg 38%
    02:00 +18°C° 0 mm 4 mps 752 mmHg 40%
    03:00 +18°C° 0 mm 4 mps 752 mmHg 42%
    04:00 +17°C° 0 mm 4 mps 752 mmHg 44%
    05:00 +17°C° 0 mm 3 mps 752 mmHg 46%
    06:00 +17°C° 0 mm 3 mps 753 mmHg 47%
    07:00 +19°C° 0 mm 4 mps 753 mmHg 42%
    08:00 +21°C° 0 mm 5 mps 753 mmHg 37%
    09:00 +25°C° 0 mm 5 mps 753 mmHg 31%
    10:00 +26°C° 0 mm 5 mps 753 mmHg 29%
    11:00 +27°C° 0 mm 5 mps 753 mmHg 26%
    12:00 +28°C° 0 mm 5 mps 752 mmHg 23%
    13:00 +29°C° 0 mm 5 mps 752 mmHg 22%
    14:00 +29°C° 0 mm 5 mps 752 mmHg 20%
    15:00 +30°C° 0 mm 5 mps 751 mmHg 19%
    16:00 +30°C° 0 mm 5 mps 751 mmHg 20%
    17:00 +29°C° 0 mm 4 mps 751 mmHg 21%
    18:00 +29°C° 0 mm 4 mps 751 mmHg 22%
    19:00 +27°C° 0 mm 4 mps 751 mmHg 24%
    20:00 +25°C° 0 mm 3 mps 751 mmHg 26%
    21:00 +22°C° 0 mm 3 mps 751 mmHg 29%
    22:00 +21°C° 0 mm 3 mps 751 mmHg 30%
    23:00 +21°C° 0 mm 3 mps 751 mmHg 31%

    Day after tomorrow, 21 August, Tuesday

    Time Temperature Precipitation Wind Pressure Humidity
    00:00 +20°C° 0 mm 3 mps 751 mmHg 32%
    01:00 +20°C° 0 mm 3 mps 751 mmHg 35%
    02:00 +19°C° 0 mm 3 mps 751 mmHg 37%
    03:00 +18°C° 0 mm 3 mps 751 mmHg 40%
    04:00 +18°C° 0 mm 3 mps 751 mmHg 43%
    05:00 +18°C° 0 mm 3 mps 751 mmHg 47%
    06:00 +18°C° 0 mm 3 mps 751 mmHg 50%
    07:00 +20°C° 0 mm 3 mps 751 mmHg 44%
    08:00 +23°C° 0 mm 4 mps 751 mmHg 37%
    09:00 +26°C° 0 mm 4 mps 751 mmHg 31%
    10:00 +28°C° 0 mm 5 mps 751 mmHg 28%
    11:00 +29°C° 0 mm 5 mps 751 mmHg 24%
    12:00 +30°C° 0 mm 5 mps 750 mmHg 21%
    13:00 +32°C° 0 mm 5 mps 750 mmHg 20%
    14:00 +32°C° 0 mm 5 mps 750 mmHg 18%
    15:00 +33°C° 0 mm 4 mps 749 mmHg 17%
    16:00 +32°C° 0 mm 4 mps 749 mmHg 19%
    17:00 +31°C° 0 mm 3 mps 749 mmHg 20%
    18:00 +30°C° 0 mm 2 mps 749 mmHg 21%
    19:00 +28°C° 0 mm 2 mps 749 mmHg 24%
    20:00 +26°C° 0 mm 2 mps 749 mmHg 27%
    21:00 +25°C° 0 mm 2 mps 749 mmHg 30%
    22:00 +24°C° 0 mm 2 mps 749 mmHg 31%
    23:00 +24°C° 0 mm 2 mps 749 mmHg 33%

    22 August, Wednesday

    Time Temperature Precipitation Wind Pressure Humidity
    00:00 +23°C° 0 mm 2 mps 749 mmHg 35%
    01:00 +23°C° 0 mm 2 mps 749 mmHg 39%
    02:00 +21°C° 0 mm 2 mps 749 mmHg 43%
    03:00 +21°C° 0 mm 2 mps 749 mmHg 47%
    04:00 +21°C° 0 mm 2 mps 749 mmHg 52%
    05:00 +20°C° 0 mm 2 mps 749 mmHg 56%
    06:00 +20°C° 0 mm 2 mps 749 mmHg 61%
    07:00 +24°C° 0 mm 2 mps 749 mmHg 55%
    08:00 +26°C° 0 mm 2 mps 749 mmHg 49%
    09:00 +28°C° 0 mm 2 mps 749 mmHg 42%
    10:00 +30°C° 0 mm 2 mps 749 mmHg 38%
    11:00 +31°C° 0 mm 2 mps 749 mmHg 33%
    12:00 +33°C° 0 mm 1 mps 749 mmHg 28%
    13:00 +33°C° 0 mm 1 mps 749 mmHg 26%
    14:00 +34°C° 0 mm 1 mps 748 mmHg 23%
    15:00 +34°C° 0 mm 1 mps 748 mmHg 21%
    16:00 +34°C° 0 mm 1 mps 748 mmHg 21%
    17:00 +34°C° 0 mm 1 mps 748 mmHg 21%
    18:00 +33°C° 0 mm 1 mps 748 mmHg 20%
    19:00 +31°C° 0 mm 2 mps 749 mmHg 25%
    20:00 +29°C° 0 mm 3 mps 749 mmHg 31%
    21:00 +27°C° 0 mm 4 mps 749 mmHg 36%
    22:00 +26°C° 0 mm 5 mps 750 mmHg 42%
    23:00 +25°C° 0 mm 5 mps 750 mmHg 48%

    23 August, Thursday

    Time Temperature Precipitation Wind Pressure Humidity
    00:00 +22°C° 0 mm 6 mps 750 mmHg 54%
    01:00 +22°C° 0 mm 6 mps 750 mmHg 52%
    02:00 +22°C° 0 mm 6 mps 751 mmHg 51%
    03:00 +21°C° 0 mm 6 mps 751 mmHg 49%
    04:00 +21°C° 0 mm 5 mps 751 mmHg 47%
    05:00 +21°C° 0 mm 5 mps 751 mmHg 45%
    06:00 +20°C° 0 mm 5 mps 752 mmHg 43%
    07:00 +22°C° 0 mm 6 mps 752 mmHg 40%
    08:00 +23°C° 0 mm 6 mps 752 mmHg 38%
    09:00 +24°C° 0 mm 6 mps 753 mmHg 35%
    10:00 +27°C° 0 mm 6 mps 752 mmHg 33%
    11:00 +28°C° 0 mm 6 mps 752 mmHg 31%
    12:00 +29°C° 0 mm 6 mps 752 mmHg 29%
    13:00 +30°C° 0 mm 6 mps 752 mmHg 28%
    14:00 +30°C° 0 mm 6 mps 752 mmHg 27%
    15:00 +32°C° 0 mm 6 mps 751 mmHg 25%
    16:00 +30°C° 0 mm 6 mps 751 mmHg 26%
    17:00 +30°C° 0 mm 6 mps 752 mmHg 26%
    18:00 +29°C° 0 mm 5 mps 752 mmHg 26%
    19:00 +28°C° 0 mm 5 mps 752 mmHg 27%
    20:00 +26°C° 0 mm 5 mps 752 mmHg 27%
    21:00 +25°C° 0 mm 5 mps 752 mmHg 28%
    22:00 +23°C° 0 mm 5 mps 752 mmHg 28%
    23:00 +23°C° 0 mm 6 mps 752 mmHg 27%

    24 August, Friday

    Time Temperature Precipitation Wind Pressure Humidity
    00:00 +22°C° 0 mm 6 mps 752 mmHg 26%
    01:00 +21°C° 0 mm 6 mps 752 mmHg 27%
    02:00 +21°C° 0 mm 6 mps 752 mmHg 27%
    03:00 +21°C° 0 mm 6 mps 752 mmHg 28%
    04:00 +20°C° 0 mm 6 mps 752 mmHg 29%
    05:00 +20°C° 0 mm 5 mps 752 mmHg 30%
    06:00 +20°C° 0 mm 5 mps 752 mmHg 31%
    07:00 +22°C° 0 mm 6 mps 752 mmHg 29%
    08:00 +24°C° 0 mm 6 mps 752 mmHg 27%
    09:00 +26°C° 0 mm 7 mps 752 mmHg 25%
    10:00 +28°C° 0 mm 6 mps 752 mmHg 24%
    11:00 +30°C° 0 mm 6 mps 752 mmHg 23%
    12:00 +32°C° 0 mm 6 mps 751 mmHg 22%
    13:00 +33°C° 0 mm 6 mps 751 mmHg 21%
    14:00 +33°C° 0 mm 6 mps 750 mmHg 21%
    15:00 +34°C° 0 mm 6 mps 750 mmHg 21%
    16:00 +33°C° 0 mm 6 mps 750 mmHg 21%
    17:00 +32°C° 0 mm 6 mps 750 mmHg 22%
    18:00 +32°C° 0 mm 6 mps 749 mmHg 23%
    19:00 +29°C° 0 mm 5 mps 749 mmHg 24%
    20:00 +27°C° 0 mm 5 mps 749 mmHg 24%
    21:00 +26°C° 0 mm 5 mps 749 mmHg 25%
    22:00 +25°C° 0 mm 5 mps 749 mmHg 25%
    23:00 +25°C° 0 mm 5 mps 749 mmHg 25%
    Show more